Location: Bathurst
(33.4193°S, 149.5775°E)
Time: 10:03:32
(UTC+10:00)

Vanguard 1 Rocket - Pass Details

Date: 17 June 2021
Orbit: 650 x 4226 km, 34.3° (Epoch: 02 August)

Event Time Altitude Azimuth Distance (km) Brightness Sun altitude
Rises 12:32:23 0° 268° (W) 6,446 11.8 32.8°
Reaches altitude 10° 12:37:28 10° 267° (W) 4,844 11.3 32.6°
Maximum altitude 12:49:25 85° 178° (S) 1,319 8.7 32.1°
Drops below altitude 10° 12:55:34 10° 88° (E) 2,613 9.7 31.8°
Sets 12:57:33 0° 87° (E) 3,356 10.2 31.7°
